Location: Deurze
(52.9838°N, 6.6090°E)
Time: 18:23:16
(UTC+00:00)

Okean 1-7 Rocket - Pass Details

Date: 11 March 2026
Orbit: 609 x 643 km, 82.5° (Epoch: 20 April)

Event Time Altitude Azimuth Distance (km) Brightness Sun altitude
Rises 18:06:25 0° 170° (S) 2,941 6.9 -6.2°
Reaches altitude 10° 18:08:44 10° 164° (SSE) 2,038 6.0 -6.6°
Maximum altitude 18:13:00 43° 93° (E) 905 4.0 -7.2°
Drops below altitude 10° 18:17:19 10° 22° (NNE) 2,051 6.1 -7.9°
Sets 18:19:39 0° 16° (NNE) 2,963 6.9 -8.2°
